Location: Arcusa
(42.3167°N, 0.0833°W)
Time: 12:31:20
(UTC+00:00)

Cosmos 1420 Rocket - Pass Details

Date: 25 January 2020
Orbit: 754 x 782 km, 74.0° (Epoch: 16 February)

Event Time Altitude Azimuth Distance (km) Brightness Sun altitude
Rises 06:38:59 0° 337° (NNW) 3,262 6.9 -8.0°
Reaches altitude 10° 06:41:22 10° 335° (NNW) 2,334 6.1 -7.6°
Maximum altitude 06:46:39 69° 253° (WSW) 835 4.1 -6.7°
Drops below altitude 10° 06:51:54 10° 171° (S) 2,328 6.9 -5.8°
Sets 06:54:17 0° 169° (S) 3,252 7.7 -5.4°
